SALT Weather Reports


Display with metric or nautical units.
time (UTC)temp
F
wind
direction
speed
MPH
gust
MPH
rain 1hr
in
rain 24hr
in
rain mn
in
humidity
%
barometer
mb
20180123055802 23 231 4.0 0.0 0.00 0.00 0.00 72 1027.5
20180123054759 21 224 2.0 0.0 0.00 0.00 0.00 79 1027.6
20180123053756 19 164 0.0 0.0 0.00 0.00 0.00 85 1027.7
20180123052754 20 164 0.0 0.0 0.00 0.00 0.00 85 1027.5
20180123051751 20 164 0.0 0.0 0.00 0.00 0.00 85 1027.4
20180123050748 20 164 0.0 0.0 0.00 0.00 0.00 86 1027.4
20180123045745 20 164 0.0 0.0 0.00 0.00 0.00 88 1027.3
20180123044741 21 164 0.0 0.0 0.00 0.00 0.00 88 1027.3
20180123043739 21 164 1.0 0.0 0.00 0.00 0.00 89 1027.2
20180123042737 21 164 2.0 0.0 0.00 0.00 0.00 91 1027.1
20180123041733 21 164 3.0 0.0 0.00 0.00 0.00 92 1027.2
20180123040731 21 162 1.0 0.0 0.00 0.00 0.00 92 1027.2
20180123035726 21 162 1.0 0.0 0.00 0.00 0.00 92 1027.3
20180123034724 21 162 2.0 0.0 0.00 0.00 0.00 92 1027.4
20180123033721 22 156 2.0 0.0 0.00 0.00 0.00 93 1027.3
20180123032718 22 200 1.0 0.0 0.00 0.00 0.00 93 1027.4
20180123031717 23 305 0.0 0.0 0.00 0.00 0.00 93 1027.4
20180123030714 23 305 1.0 0.0 0.00 0.00 0.00 93 1027.3
20180123025708 23 305 1.0 0.0 0.00 0.00 0.00 93 1027.2
20180123024705 24 338 0.0 0.0 0.00 0.00 0.00 93 1027.2
20180123023704 24 337 0.0 0.0 0.00 0.00 0.00 93 1027.3
20180123022701 24 337 1.0 0.0 0.00 0.00 0.00 93 1027.1
20180123021658 24 338 1.0 0.0 0.00 0.00 0.00 93 1026.8
20180123020656 25 335 0.0 0.0 0.00 0.00 0.00 93 1026.8
20180123015650 25 335 0.0 0.0 0.00 0.00 0.00 93 1026.9
20180123014648 25 335 0.0 0.0 0.00 0.00 0.00 93 1027.1
20180123013646 25 335 0.0 0.0 0.00 0.00 0.00 93 1027.1
20180123012643 25 335 2.0 0.0 0.00 0.00 0.00 93 1027.0
20180123011641 25 343 2.0 0.0 0.00 0.00 0.00 93 1027.1
20180123010638 25 343 3.0 0.0 0.00 0.00 0.00 93 1027.0
20180123005632 25 345 4.0 0.0 0.00 0.00 0.00 93 1027.0
20180123004634 25 316 3.0 0.0 0.00 0.00 0.00 92 1026.9
20180123003628 25 354 5.0 0.0 0.00 0.00 0.00 90 1026.9
20180123002625 26 301 4.0 0.0 0.00 0.00 0.00 86 1026.9
20180123001622 26 318 5.0 0.0 0.00 0.00 0.00 83 1026.6
20180123000625 27 4 1.0 0.0 0.00 0.00 0.00 78 1026.5
20180122235615 27 85 1.0 0.0 0.00 0.00 0.00 77 1026.3
20180122234612 28 89 1.0 0.0 0.00 0.00 0.00 76 1026.2
20180122233610 28 89 1.0 0.0 0.00 0.00 0.00 77 1026.0
20180122232607 28 93 2.0 0.0 0.00 0.00 0.00 76 1025.9
20180122231604 29 104 3.0 0.0 0.00 0.00 0.00 74 1025.8
20180122230602 29 93 2.0 0.0 0.00 0.00 0.00 73 1025.7
20180122225557 29 68 2.0 0.0 0.00 0.00 0.00 73 1025.6
20180122224554 29 81 2.0 0.0 0.00 0.00 0.00 72 1025.2
20180122223552 29 62 4.0 0.0 0.00 0.00 0.00 72 1025.2
20180122222551 30 4 4.0 0.0 0.00 0.00 0.00 68 1024.9
20180122221546 31 19 6.0 0.0 0.00 0.00 0.00 69 1024.9
20180122220544 31 11 5.0 0.0 0.00 0.00 0.00 64 1024.8
20180122215539 31 341 4.0 0.0 0.00 0.00 0.00 62 1024.6
20180122214538 31 354 1.0 0.0 0.00 0.00 0.00 60 1024.5
20180122213534 31 158 1.0 0.0 0.00 0.00 0.00 59 1024.5
20180122212534 31 77 2.0 0.0 0.00 0.00 0.00 66 1024.5
20180122211529 30 31 2.0 0.0 0.00 0.00 0.00 62 1024.6
20180122210527 31 346 2.0 0.0 0.00 0.00 0.00 63 1024.5
20180122204519 29 83 2.0 0.0 0.00 0.00 0.00 71 1024.6
20180122203516 29 81 1.0 0.0 0.00 0.00 0.00 74 1024.7
20180122202514 29 20 4.0 0.0 0.00 0.00 0.00 72 1024.9
20180122201511 29 48 4.0 0.0 0.00 0.00 0.00 77 1024.8
20180122200508 30 354 2.0 0.0 0.00 0.00 0.00 72 1024.8
20180122195503 30 359 3.0 0.0 0.00 0.00 0.00 76 1024.7
20180122194454 31 88 2.0 0.0 0.00 0.00 0.00 81 1024.6
20180122193452 30 76 1.0 0.0 0.00 0.00 0.00 83 1024.5
20180122192450 30 81 1.0 0.0 0.00 0.00 0.00 84 1024.5
20180122191447 29 328 2.0 0.0 0.00 0.00 0.00 82 1024.4
20180122190445 29 85 2.0 0.0 0.00 0.00 0.00 87 1024.4
20180122185439 29 168 2.0 0.0 0.00 0.00 0.00 88 1024.6
20180122184437 29 168 2.0 0.0 0.00 0.00 0.00 88 1024.6
20180122183434 28 160 1.0 0.0 0.00 0.00 0.00 92 1024.7
20180122182431 27 85 2.0 0.0 0.00 0.00 0.00 92 1024.7
20180122181429 27 32 3.0 0.0 0.00 0.00 0.00 93 1024.8
20180122180426 26 354 4.0 0.0 0.00 0.00 0.00 93 1024.8
20180122175425 27 25 2.0 0.0 0.00 0.00 0.00 93 1024.6
20180122173416 27 111 1.0 0.0 0.00 0.00 0.00 93 1024.3
20180122172414 27 225 0.0 0.0 0.00 0.00 0.00 94 1024.3
20180122171411 26 225 0.0 0.0 0.00 0.00 0.00 94 1024.3
20180122170410 26 225 0.0 0.0 0.00 0.00 0.00 94 1024.0
20180122165404 26 225 0.0 0.0 0.00 0.00 0.00 94 1023.7
20180122164401 25 225 0.0 0.0 0.00 0.00 0.00 94 1023.8
20180122163358 25 225 0.0 0.0 0.00 0.00 0.00 94 1023.8
20180122161354 24 225 0.0 0.0 0.00 0.00 0.00 94 1023.3
20180122160351 24 225 0.0 0.0 0.00 0.00 0.00 94 1023.3
20180122155346 24 225 0.0 0.0 0.00 0.00 0.00 94 1023.0
20180122154343 24 225 0.0 0.0 0.00 0.00 0.00 94 1023.0
20180122153341 23 225 0.0 0.0 0.00 0.00 0.00 93 1023.0
20180122152338 24 225 1.0 0.0 0.00 0.00 0.00 94 1022.9
20180122151336 24 225 0.0 0.0 0.00 0.00 0.00 94 1022.7
20180122150333 24 225 0.0 0.0 0.00 0.00 0.00 94 1022.6
20180122145328 23 225 0.0 0.0 0.00 0.00 0.00 94 1022.4
20180122144326 23 225 0.0 0.0 0.00 0.00 0.00 93 1022.4
20180122143323 23 225 0.0 0.0 0.00 0.00 0.00 93 1022.2
20180122142321 23 225 1.0 0.0 0.00 0.00 0.00 93 1022.2
20180122141318 23 225 1.0 0.0 0.00 0.00 0.00 93 1022.0
20180122140315 23 225 0.0 0.0 0.00 0.00 0.00 92 1021.9
20180122135310 24 225 0.0 0.0 0.00 0.00 0.00 93 1021.9
20180122134308 24 225 0.0 0.0 0.00 0.00 0.00 93 1021.8
20180122133305 23 225 0.0 0.0 0.00 0.00 0.00 93 1021.8
20180122132302 23 225 1.0 0.0 0.00 0.00 0.00 92 1021.9
20180122131300 24 199 5.0 0.0 0.00 0.00 0.00 92 1021.4
20180122130257 24 201 3.0 0.0 0.00 0.00 0.00 92 1021.4
20180122125252 24 214 4.0 0.0 0.00 0.00 0.00 92 1021.2
20180122124250 24 144 5.0 0.0 0.00 0.00 0.00 93 1021.0
20180122123247 24 143 4.0 0.0 0.00 0.00 0.00 93 1021.0
20180122122245 24 149 3.0 0.0 0.00 0.00 0.00 93 1021.2
20180122121242 24 160 2.0 0.0 0.00 0.00 0.00 93 1021.3
20180122120240 24 158 3.0 0.0 0.00 0.00 0.00 93 1021.4
20180122115235 24 116 4.0 0.0 0.00 0.00 0.00 93 1021.5
20180122113230 24 106 5.0 0.0 0.00 0.00 0.00 94 1021.3
20180122112227 24 122 5.0 0.0 0.00 0.00 0.00 94 1021.4
20180122111224 24 131 4.0 0.0 0.00 0.00 0.00 93 1021.4
20180122110222 24 130 5.0 0.0 0.00 0.00 0.00 93 1021.3
20180122105217 24 156 7.0 0.0 0.00 0.00 0.00 93 1021.4
20180122104215 23 185 8.0 0.0 0.00 0.00 0.00 93 1021.3
20180122103212 23 180 6.0 0.0 0.00 0.00 0.00 93 1021.4
20180122102210 24 187 3.0 0.0 0.00 0.00 0.00 92 1021.4
20180122101206 24 177 6.0 0.0 0.00 0.00 0.00 92 1021.5
20180122100203 24 191 3.0 0.0 0.00 0.00 0.00 93 1021.4
20180122095158 24 155 3.0 0.0 0.00 0.00 0.00 93 1021.1
20180122094156 24 163 4.0 0.0 0.00 0.00 0.00 92 1021.1
20180122093154 24 149 6.0 0.0 0.00 0.00 0.00 91 1021.1
20180122092150 25 143 10.0 0.0 0.00 0.00 0.00 91 1021.0
20180122091148 25 156 10.0 0.0 0.00 0.00 0.00 92 1020.7
20180122090145 24 181 10.0 0.0 0.00 0.00 0.00 93 1020.7
20180122085140 24 135 10.0 0.0 0.00 0.00 0.00 93 1020.8
20180122084138 25 152 11.0 0.0 0.00 0.00 0.00 92 1020.9
20180122083135 25 185 12.0 0.0 0.00 0.00 0.00 92 1021.1
20180122082133 25 151 12.0 0.0 0.00 0.00 0.00 92 1021.1
20180122081131 25 157 13.0 0.0 0.00 0.00 0.00 92 1021.2
20180122080128 25 178 13.0 0.0 0.00 0.00 0.00 92 1021.3
20180122075123 25 180 13.0 0.0 0.00 0.00 0.00 93 1021.3
20180122074121 24 160 11.0 0.0 0.00 0.00 0.00 94 1021.4
20180122073118 24 174 9.0 0.0 0.00 0.00 0.00 94 1021.6
20180122072115 24 174 10.0 0.0 0.00 0.00 0.00 94 1021.7
20180122071113 24 143 10.0 0.0 0.00 0.00 0.00 94 1021.6
20180122070110 24 161 11.0 0.0 0.00 0.00 0.00 94 1021.6
20180122065105 24 126 11.0 0.0 0.00 0.00 0.00 94 1021.8
20180122064103 24 134 11.0 0.0 0.00 0.00 0.00 94 1021.9
20180122063059 24 155 11.0 0.0 0.00 0.00 0.00 93 1022.0
20180122062058 24 125 11.0 0.0 0.00 0.00 0.00 93 1022.0
20180122061055 24 126 11.0 0.0 0.00 0.00 0.00 93 1021.9